ATLAS 5 CENTAUR DEB, 43952

Orbit data source: Space-Track

ATLAS 5 CENTAUR DEB, 43952 is space debris in HEO originally from a launch on Wed, 17 Sep 2014 UTC launched from the Air Force Eastern Test Range (AFETR). Debris objects in space refer to the collection of defunct objects orbiting the Earth. Examples of debris include non-operational satellites, rocket bodies, and fragments generated from explosions, collisions, or faulty payload assembly.

Loading next visibility...
Identifier
43952, 2014-055F
Orbit
HEO
Country
Flag of USUS
Related business
Flag of USUnited Launch Alliance/Lockheed Martin (US)
Manufacturer
Unknown
Mission
Spacecraft
Bus & Motor
Unknown
Mass
Unknown
Launch date (UTC)
2014-09-17 (12 years ago)
Launch vehicle
Unknown
Launch site
Air Force Eastern Test Range (AFETR)
Object type
Payload
Rocket body
Debris
Shape & HBR
Unknown shape, 1.1 m
Radar Cross Section
RCS unknown

Expand to show TLE details & history
Last TLE update: 1 week ago

TLE from 1 week ago
0 ATLAS 5 CENTAUR DEB
1 43952U 14055F   26113.02015464  .00000176  00000-0  00000-0 0  9997
2 43952  21.2341  84.0217 5127971 277.1509  29.7125  1.97467686 54945
Epoch: 2026-04-23T00:29Z
TLE epoch observation values (Epoch: 2026-04-23T00:29:01.360Z)
Latitude
-0.00009°
Longitude
-134.35053°
Altitude
12,190.727 km
Speed
5.299 km/s
True Right ascension
05h 35m 54s
True Declination
0° 00' 00"
Sunlit
Object was in daylight at epoch
Visualization orbit readout
Latitude
Unknown
Longitude
Unknown
Altitude
Unknown
Speed
Unknown
Apparent Right ascension
Unknown
Apparent Declination
Unknown
Sunlit
N/A
Visualization observer readout
Local Sidereal Time
10:32:30
Azimuth
Unknown
Elevation
Unknown
Doppler factor
Unknown
Orbital elements
Apogee altitude
34,224.335 km
Perigee altitude
6,698.066 km
Semi-major axis
26,839.338 km
Eccentricity
0.5128
Inclination
21.2341°
RAAN
84.0217°
Arg. of periapsis
277.1509°
True anomaly
82.9201°
Mean anomaly
29.7125°
Eccentric anomaly
53.2561°
Mean motion
0.49361 °/min
Orbital period
729.32 mins
BSTAR
0
Loading maneuver chart data...
Computing Atmospheric mass density...

Documentation

Showing up to 5 results
|